VK2HN Weather Reports


time (UTC)temp
C
wind
direction
speed
KPH
gust
KPH
rain 1hr
cm
rain 24hr
cm
rain mn
cm
humidity
%
barometer
mb
20260503190045 13 119 0.0 0.0 0.00 0.00 0.00 98 1016.3
20260503185545 13 119 0.0 0.0 0.00 0.00 0.00 98 1016.5
20260503185045 13 119 0.0 0.0 0.00 0.00 0.00 98 1016.5
20260503184545 13 119 0.0 0.0 0.00 0.00 0.00 98 1016.4
20260503184045 13 119 0.0 0.0 0.00 0.00 0.00 98 1016.4
20260503183545 13 119 0.0 0.0 0.00 0.00 0.00 98 1016.5
20260503183045 13 119 0.0 0.0 0.00 0.00 0.00 98 1016.4
20260503182545 13 119 0.0 0.0 0.00 0.00 0.00 98 1016.3
20260503182045 13 119 0.0 0.0 0.00 0.00 0.00 98 1016.4
20260503181545 13 119 0.0 0.0 0.00 0.00 0.00 98 1016.4
20260503181045 13 119 0.0 0.0 0.00 0.00 0.00 98 1016.3
20260503180545 13 119 0.0 0.0 0.00 0.00 0.00 98 1016.5
20260503180045 12 119 0.0 0.0 0.00 0.00 0.00 98 1016.4
20260503175545 12 119 0.0 0.0 0.00 0.00 0.00 98 1016.3
20260503175045 12 119 0.0 0.0 0.00 0.00 0.00 98 1016.3
20260503174545 12 119 0.0 0.0 0.00 0.00 0.00 98 1016.4
20260503174045 12 119 0.0 0.0 0.00 0.00 0.00 98 1016.4
20260503173545 12 119 0.0 0.0 0.00 0.00 0.00 98 1016.4
20260503173045 12 119 0.0 0.0 0.00 0.00 0.00 98 1016.5
20260503172545 12 119 0.0 0.0 0.00 0.00 0.00 98 1016.5
20260503172045 12 119 0.0 0.0 0.00 0.00 0.00 98 1016.4
20260503171545 13 119 0.0 0.0 0.00 0.00 0.00 98 1016.4
20260503171045 13 119 0.0 0.0 0.00 0.00 0.00 98 1016.5
20260503170545 13 119 0.0 0.0 0.00 0.00 0.00 98 1016.5
20260503150545 13 119 0.0 0.0 0.00 0.00 0.00 97 1017.5
20260503131046 14 119 0.0 0.0 0.00 0.00 0.00 96 1018.7
20260503130546 14 119 0.0 0.0 0.00 0.00 0.00 96 1018.6
20260503110546 15 119 0.0 0.0 0.00 0.00 0.00 94 1019.1
20260503081546 20 113 0.0 0.0 0.00 0.00 0.00 83 1018.3
20260503081046 20 113 0.0 0.0 0.00 0.00 0.00 83 1018.4
20260503080546 20 113 0.0 0.0 0.00 0.00 0.00 82 1018.3
20260503072546 21 104 0.0 0.0 0.00 0.00 0.00 78 1018.2
20260503072046 22 104 0.0 0.0 0.00 0.00 0.00 77 1018.2
20260503071546 22 104 1.6 3.2 0.00 0.00 0.00 77 1018.3
20260503071046 22 109 1.6 8.0 0.00 0.00 0.00 76 1018.1
20260503070546 22 96 1.6 6.4 0.00 0.00 0.00 75 1018.1
20260503055046 24 109 1.6 0.0 0.00 0.00 0.00 67 1018.3
20260503054546 24 109 1.6 11.3 0.00 0.00 0.00 66 1018.2
20260503054046 24 117 0.0 0.0 0.00 0.00 0.00 66 1018.3
20260503053546 25 117 0.0 6.4 0.00 0.00 0.00 66 1018.4
20260503053046 25 112 0.0 3.2 0.00 0.00 0.00 65 1018.4
20260503052546 25 111 0.0 6.4 0.00 0.00 0.00 64 1018.3
20260503052046 25 87 0.0 4.8 0.00 0.00 0.00 65 1018.5
20260503051546 25 99 0.0 0.0 0.00 0.00 0.00 64 1018.4
20260503051046 25 99 1.6 1.6 0.00 0.00 0.00 63 1018.5
20260503050546 25 99 1.6 12.9 0.00 0.00 0.00 62 1018.4
20260503050046 25 124 0.0 4.8 0.00 0.00 0.00 62 1018.5
20260503045546 25 331 0.0 3.2 0.00 0.00 0.00 62 1018.6
20260503045046 25 342 0.0 6.4 0.00 0.00 0.00 63 1018.6
20260503044546 25 78 0.0 0.0 0.00 0.00 0.00 63 1018.6
20260503044046 25 82 1.6 4.8 0.00 0.00 0.00 62 1018.6
20260503043546 26 119 1.6 6.4 0.00 0.00 0.00 61 1018.7
20260503043046 26 272 0.0 0.0 0.00 0.00 0.00 60 1018.7
20260503042546 26 272 1.6 6.4 0.00 0.00 0.00 61 1018.8
20260503042046 26 128 3.2 8.0 0.00 0.00 0.00 61 1018.9
20260503041546 26 137 1.6 14.5 0.00 0.00 0.00 58 1019.1
20260503041046 26 112 1.6 12.9 0.00 0.00 0.00 60 1019.0
20260503040546 26 275 1.6 11.3 0.00 0.00 0.00 60 1019.0
20260503040046 26 58 0.0 1.6 0.00 0.00 0.00 59 1019.1
20260503035546 26 55 0.0 0.0 0.00 0.00 0.00 61 1019.1
20260503035046 26 129 0.0 1.6 0.00 0.00 0.00 59 1019.1
20260503034546 26 15 1.6 6.4 0.00 0.00 0.00 59 1019.2
20260503034046 26 87 1.6 11.3 0.00 0.00 0.00 60 1019.3
20260503033546 26 5 1.6 9.7 0.00 0.00 0.00 60 1019.3
20260503033046 26 131 1.6 6.4 0.00 0.00 0.00 57 1019.4
20260503032547 26 112 0.0 4.8 0.00 0.00 0.00 57 1019.5
20260503032046 26 309 0.0 4.8 0.00 0.00 0.00 60 1019.6
20260503031547 26 304 0.0 3.2 0.00 0.00 0.00 62 1019.7
20260503031046 26 303 1.6 1.6 0.00 0.00 0.00 61 1019.8
20260503030547 26 305 3.2 11.3 0.00 0.00 0.00 60 1019.9
20260503030046 26 292 1.6 8.0 0.00 0.00 0.00 59 1020.0
20260503025547 26 268 1.6 9.7 0.00 0.00 0.00 59 1020.0
20260503025047 26 274 0.0 4.8 0.00 0.00 0.00 60 1020.1
20260503024547 26 271 0.0 1.6 0.00 0.00 0.00 60 1020.3
20260503024047 26 286 0.0 4.8 0.00 0.00 0.00 60 1020.4
20260503023547 25 285 1.6 3.2 0.00 0.00 0.00 62 1020.7
20260503023047 25 286 1.6 8.0 0.00 0.00 0.00 62 1020.6
20260503022547 25 311 3.2 9.7 0.00 0.00 0.00 61 1020.4
20260503022047 25 80 1.6 12.9 0.00 0.00 0.00 63 1020.7
20260503021547 25 113 1.6 4.8 0.00 0.00 0.00 63 1020.6
20260503021047 25 306 1.6 8.0 0.00 0.00 0.00 63 1020.7
20260503020547 25 63 1.6 3.2 0.00 0.00 0.00 65 1020.8
20260503020047 25 276 1.6 9.7 0.00 0.00 0.00 66 1021.0
20260503015547 24 263 1.6 9.7 0.00 0.00 0.00 68 1021.1
20260503015047 24 298 3.2 6.4 0.00 0.00 0.00 65 1021.2
20260503014547 24 300 3.2 16.1 0.00 0.00 0.00 66 1021.4
20260503014047 24 277 1.6 9.7 0.00 0.00 0.00 69 1021.5
20260503013547 23 304 1.6 6.4 0.00 0.00 0.00 71 1021.7
20260503013047 23 274 1.6 6.4 0.00 0.00 0.00 71 1021.8
20260503012547 22 277 0.0 9.7 0.00 0.00 0.00 74 1021.9
20260503012047 22 292 0.0 4.8 0.00 0.00 0.00 74 1022.0
20260503011547 22 292 1.6 3.2 0.00 0.00 0.00 74 1022.0
20260503011047 22 332 1.6 8.0 0.00 0.00 0.00 77 1022.1
20260503010547 22 36 1.6 4.8 0.00 0.00 0.00 78 1022.2
20260503010047 21 92 0.0 6.4 0.00 0.00 0.00 78 1022.3
20260503005547 21 273 1.6 3.2 0.00 0.00 0.00 80 1022.3
20260503005047 21 273 1.6 6.4 0.00 0.00 0.00 79 1022.5
20260503004547 21 71 0.0 3.2 0.00 0.00 0.00 80 1022.5
20260503004047 21 64 0.0 4.8 0.00 0.00 0.00 81 1022.5
20260503003547 21 344 0.0 3.2 0.00 0.00 0.00 82 1022.4
20260503003047 20 342 0.0 1.6 0.00 0.00 0.00 82 1022.5
20260503002547 20 342 0.0 1.6 0.00 0.00 0.00 84 1022.6
20260503002047 20 342 0.0 0.0 0.00 0.00 0.00 84 1022.7
20260503001547 20 343 1.6 1.6 0.00 0.00 0.00 84 1022.6
20260503001047 20 291 1.6 4.8 0.00 0.00 0.00 86 1022.7
20260503000547 20 80 0.0 3.2 0.00 0.00 0.00 88 1022.6
20260503000047 19 80 0.0 6.4 0.00 0.00 0.00 89 1022.7
20260502235547 19 184 0.0 1.6 0.00 0.00 0.00 90 1022.7
20260502235047 18 244 0.0 4.8 0.00 0.00 0.00 92 1022.9
20260502234547 18 239 0.0 0.0 0.00 0.00 0.00 93 1022.8
20260502234047 18 239 0.0 0.0 0.00 0.00 0.00 94 1023.0
20260502233547 18 244 0.0 1.6 0.00 0.00 0.00 95 1022.9
20260502233047 17 245 0.0 0.0 0.00 0.00 0.00 96 1023.0
20260502232547 17 245 0.0 0.0 0.00 0.00 0.00 97 1023.1
20260502232047 17 245 0.0 0.0 0.00 0.00 0.00 97 1023.3
20260502231547 17 245 0.0 0.0 0.00 0.00 0.00 97 1023.4
20260502231047 17 245 0.0 0.0 0.00 0.00 0.00 98 1023.3
20260502230547 17 242 0.0 3.2 0.00 0.00 0.00 98 1023.4
20260502230047 17 239 0.0 4.8 0.00 0.00 0.00 99 1023.5
20260502225547 16 239 1.6 4.8 0.00 0.00 0.00 99 1023.5
20260502225047 16 238 1.6 4.8 0.00 0.00 0.00 99 1023.4
20260502224547 16 197 0.0 4.8 0.00 0.00 0.00 99 1023.5
20260502224047 16 178 0.0 3.2 0.00 0.00 0.00 99 1023.4
20260502223547 16 178 0.0 0.0 0.00 0.00 0.00 99 1023.4
20260502223047 16 178 0.0 1.6 0.00 0.00 0.00 99 1023.4
20260502222547 16 178 0.0 0.0 0.00 0.00 0.00 99 1023.5
20260502222047 16 178 0.0 0.0 0.00 0.00 0.00 99 1023.4
20260502221547 15 178 0.0 0.0 0.00 0.00 0.00 100 1023.2
20260502221047 15 178 0.0 0.0 0.00 0.00 0.00 99 1023.3
20260502220547 15 178 0.0 0.0 0.00 0.00 0.00 99 1023.4
20260502220047 15 178 0.0 0.0 0.00 0.00 0.00 99 1023.1
20260502215547 14 178 0.0 0.0 0.00 0.00 0.00 99 1023.1
20260502215047 14 178 0.0 0.0 0.00 0.00 0.00 99 1023.1
20260502214547 14 178 0.0 0.0 0.00 0.00 0.00 99 1023.0
20260502214047 13 178 0.0 0.0 0.00 0.00 0.00 99 1023.0
20260502213547 13 178 0.0 0.0 0.00 0.00 0.00 99 1023.0
20260502213047 13 178 0.0 0.0 0.00 0.00 0.00 99 1022.9
20260502212547 13 178 0.0 0.0 0.00 0.00 0.00 99 1022.9
20260502212047 13 178 0.0 0.0 0.00 0.00 0.00 99 1022.7
20260502211547 13 178 0.0 0.0 0.00 0.00 0.00 99 1022.6
20260502211047 13 178 0.0 0.0 0.00 0.00 0.00 99 1022.7
20260502210547 13 178 0.0 0.0 0.00 0.00 0.00 99 1022.8
20260502210047 13 178 0.0 0.0 0.00 0.00 0.00 99 1022.7
20260502205547 13 178 0.0 0.0 0.00 0.00 0.00 99 1022.7
20260502205047 13 178 0.0 0.0 0.00 0.00 0.00 98 1022.7
20260502204547 12 178 0.0 0.0 0.00 0.00 0.00 98 1022.6
20260502204047 12 178 0.0 0.0 0.00 0.00 0.00 98 1022.6
20260502203547 12 178 0.0 0.0 0.00 0.00 0.00 98 1022.6
20260502203047 12 178 0.0 0.0 0.00 0.00 0.00 98 1022.6
20260502202547 12 178 0.0 0.0 0.00 0.00 0.00 98 1022.7
20260502202047 12 178 0.0 0.0 0.00 0.00 0.00 98 1022.5
20260502201547 12 178 0.0 0.0 0.00 0.00 0.00 98 1022.6
20260502201047 12 178 0.0 0.0 0.00 0.00 0.00 98 1022.7
20260502200547 12 178 0.0 0.0 0.00 0.00 0.00 98 1022.7
20260502200047 12 178 0.0 0.0 0.00 0.00 0.00 98 1022.8
20260502195547 12 178 0.0 0.0 0.00 0.00 0.00 98 1022.6
20260502195047 12 178 0.0 0.0 0.00 0.00 0.00 98 1022.7
20260502194547 12 178 0.0 0.0 0.00 0.00 0.00 98 1022.6
20260502194047 12 178 0.0 0.0 0.00 0.00 0.00 98 1022.8
20260502193547 12 178 0.0 0.0 0.00 0.00 0.00 98 1022.7
20260502193047 12 178 0.0 0.0 0.00 0.00 0.00 98 1022.7
20260502192547 12 178 0.0 0.0 0.00 0.00 0.00 98 1022.7
20260502192047 12 178 0.0 0.0 0.00 0.00 0.00 98 1022.6
20260502191547 12 178 0.0 0.0 0.00 0.00 0.00 98 1022.5
20260502191047 12 178 0.0 0.0 0.00 0.00 0.00 98 1022.4
20260502190547 12 178 0.0 0.0 0.00 0.00 0.00 98 1022.5